Кикерино

Россия / Санкт-Петербург и Ленинградская область     59°27′43″N   29°37′50″E
В апреле 2022 года жителям России запретили посещать сайт meteo.paraplan.net по решению Генеральной прокуратуры. Аудитория сайта уменьшилась в 10 раз. Владельцы сайта не видят смысла в поддержке погодного сервера в таких условиях. Сайт будет закрыт в октябре.
темп.,
°C
ветер,
м/с
пор.,
м/с
влажн.,
%
обл.,
%
осадки,
мм/ч
давл.,
гПа
погр.,
м
30 сентября, пт
пт3000:00+7ююв2797100 0.2 1005360
03:00+7ююв2698100 0.4 1006323
06:00+7ю2699100 0.2 1006234
09:00+7ююз389692 0.4 1007347
12:00+8ююз368598 0.3 1009711
15:00+8ююз379090 0.3 1010532
18:00+8юз388795 0.3 1011487
21:00+5ююз2794100 0.3 1012150
1 октября, сб
сб100:00+7юз399012 0.0 1013355
03:00+4юз38977 0.0 1014172
06:00+4юз269713 0.0 1014130
09:00+6юз25929 0.0 1015165
12:00+10юз237525 0.0 1014680
15:00+12зюз116040 0.0 10131127
18:00+9в117583 0.0 101210
21:00+6в1187100 0.0 101210
2 октября, вс
вс200:00+5ссв11905 0.0 101111
03:00+4св22944 0.0 101117
06:00+4св11955 0.0 101011
09:00+6св12894 0.0 1010103
12:00+11ссв22655 0.0 1010707
15:00+11св235721 0.0 1010939
18:00+8св2275100 0.0 101022
21:00+5всв2486100 0.0 101184
3 октября, пн
пн300:00+5всв2489100 0.0 101187
03:00+5всв2491100 0.0 1010101
06:00+4св2594100 0.0 1010128
09:00+5св3885100 0.0 1009303
12:00+7св4777100 0.0 1008690
15:00+7ссв5976100 0.1 1007930
18:00+6с51181100 0.1 10041083
21:00+6с61393100 2.3 10021158
4 октября, вт
вт400:00+5с71496100 7.2 9981237
03:00+4ссз71397100 14.8 9961135
06:00+4сз71397100 3.8 994875
09:00+4сз61395100 5.9 993748
12:00+5зсз51095100 1.9 995656
15:00+6зсз3796100 2.3 997566
18:00+6зсз2695100 0.2 1001392
21:00+6з4896100 0.5 1003623